Tracking 19176 objects as of 26-May-2018
HD Live streaming from Space Station
objects crossing your sky now

NOAA 16 DEB

Track NOAA 16 DEB now!
10-day predictions


NORAD ID: 41055
Int'l Code: 2000-055N
Perigee: 829.1 km
Apogee: 859.0 km
Inclination: 98.9 °
Period: 101.7 minutes
Semi major axis: 7215 km
RCS: Unknown
Launch date: September 21, 2000
Source: United States (US)
Launch site: AIR FORCE WESTERN TEST RANGE (AFWTR)

Note: This is SATELLITE DEBRIS
aabbcc
Your satellite tracking list
Your tracking list is empty




NASA's NSSDC Master Catalog

Two Line Element Set (TLE):
1 41055U 00055N   18145.76453741  .00000507  00000-0  27594-3 0  9993
2 41055  98.8502 224.2391 0020733  59.7894 300.5330 14.16593327129118
Source of the keplerian elements: AFSPC